Terminal Aerodrome Forecast
Issued by NWS

Home | Current Version | Previous Version | Text Only | Print | Product List | Glossary On
Versions: 1 2 3 4 5 6 7 8 9 10 11 12 13
000
FTUS42 TJSJ 101100
TAFKPK
TAF
TKPK 101123Z 1012/1112 07012KT P6SM SCT020
     FM101330 09012KT P6SM SCT023
     FM102300 06006KT P6SM FEW025=

USA.gov is the U.S. government's official web portal to all federal, state and local government web resources and services.